Location: Recife
(8.0585°S, 34.8848°W)
Time: 11:31:59
(UTC-03:00)

Vanguard 2 Rocket - Pass Details

Date: 19 April 2026
Orbit: 553 x 3286 km, 32.9° (Epoch: 8 May)

Event Time Altitude Azimuth Distance (km) Brightness Sun altitude
Rises 02:53:02 0° 308° (NW) 2,781 - -37.2°
Reaches altitude 10° 02:54:59 10° 310° (NW) 1,981 - -36.7°
Maximum altitude 02:59:21 75° 36° (NE) 804 - -35.6°
Exits shadow 03:01:25 41° 112° (ESE) 1,254 7.8 -35.1°
Drops below altitude 10° 03:06:10 10° 120° (ESE) 3,040 10.1 -33.9°
Sets 03:09:49 0° 122° (ESE) 4,434 11.1 -33.0°
